Flag for Netherlands Weather past 2 weeks in Ede, Netherlands

Now
50 °F

Partly sunny.


Feels Like: 45 °F
Forecast: 48 / 57 °F
Wind: 14 mph from Northwest

Location: Deelen

Current Time: Oct 22, 2014 at 2:54:52 PM

Latest Report: Oct 22, 2014 at 2:25 PM


Visibility: N/A

Pressure: 30.07 "Hg

Humidity: 88%

Dew point: 46 °F

Location of EdeLocation

Historic Weather in Ede — Graph

°F

Ede temperature yesterday

Maximum temperature yesterday: 55 °F (at 12:25 AM)
Minimum temperature yesterday: 45 °F (at 8:55 PM)
Average temperature yesterday: 52 °F

Past Weeks' High & Low Weather Summary

 TemperatureHumidityPressure
High72 °F (Oct 18, 3:55 PM)100% (Oct 8, 4:55 AM)30.04 "Hg (Oct 8, 4:55 AM)
Low45 °F (Oct 21, 8:55 PM)63% (Oct 7, 3:55 PM)29.45 "Hg (Oct 21, 2:25 PM)
Average56 °F89%29.79 "Hg
* Reported Oct 7 1:25 PM — Oct 22 1:55 PM, Ede, Weather by CustomWeather, © 2014

Note: Actual official high and low records may vary slightly from our data, if they occured in-between our weather recording intervals... More about our weather records

Advertising

Ede weather history for previous 24 hours

 ConditionsComfort  
Time TempWeatherWind HumidityBarometerVisibility
1:55 PM
Oct 22
54 °FScattered clouds.14 mph77%30.04 "HgN/A
1:25 PM52 °FScattered clouds.10 mph82%30.04 "HgN/A
12:55 PM52 °FDrizzle. More clouds than sun.12 mph77%30.04 "HgN/A
12:25 PM52 °FBroken clouds.17 mph72%30.04 "HgN/A
12:02 PM54 °FBroken clouds.16 mph72%30.01 "HgN/A
11:55 AM52 °FBroken clouds.14 mph77%30.01 "HgN/A
11:25 AM52 °FPassing clouds.15 mph77%30.01 "HgN/A
10:55 AM50 °FBroken clouds.16 mph76%30.01 "HgN/A
10:25 AM48 °FBroken clouds.13 mph87%30.01 "HgN/A
9:55 AM46 °FPartly sunny.12 mph87%29.98 "HgN/A
9:25 AM46 °FBroken clouds.10 mph87%29.98 "HgN/A
8:55 AM46 °FPartly cloudy.14 mph87%29.95 "HgN/A
8:25 AM46 °FPartly cloudy.13 mph87%29.95 "HgN/A
7:55 AM46 °FSprinkles. Partly cloudy.17 mph87%29.92 "Hg6 mi
7:25 AM46 °FPartly cloudy.10 mph87%29.92 "HgN/A
6:55 AM46 °FLight rain. Mostly cloudy.15 mph87%29.92 "HgN/A
6:25 AM46 °FPartly cloudy.14 mph82%29.89 "HgN/A
5:55 AM46 °FLight rain. Partly cloudy.13 mph87%29.89 "HgN/A
5:25 AM46 °FPartly cloudy.12 mph82%29.86 "HgN/A
4:55 AM46 °FPassing clouds.12 mph82%29.86 "HgN/A
4:25 AM46 °FPartly cloudy.12 mph82%29.86 "HgN/A
3:55 AM45 °FPartly cloudy.8 mph87%29.86 "HgN/A
3:25 AM45 °FPassing clouds.9 mph87%29.86 "HgN/A
2:55 AM46 °FPartly cloudy.10 mph87%29.83 "HgN/A
2:25 AM46 °FPartly cloudy.10 mph87%29.83 "HgN/A
1:55 AM46 °FLight rain. Partly cloudy.10 mph87%29.80 "HgN/A
1:25 AM46 °FRain showers. Mostly cloudy.20 mph87%29.80 "Hg6 mi
12:55 AM46 °FLight rain. Partly cloudy.14 mph93%29.77 "HgN/A
12:25 AM45 °FPartly cloudy.12 mph93%29.74 "HgN/A
11:55 PM
Oct 21
46 °FRain showers. Passing clouds.15 mph87%29.74 "HgN/A
11:25 PM46 °FSprinkles. Overcast.12 mph87%29.71 "HgN/A
10:55 PM46 °FPartly cloudy.8 mph87%29.71 "HgN/A
10:25 PM46 °FLight rain. Passing clouds.10 mph87%29.68 "HgN/A
9:55 PM46 °FLight rain. Partly cloudy.12 mph87%29.65 "HgN/A
9:25 PM46 °FLight rain. Partly cloudy.14 mph87%29.65 "HgN/A
8:55 PM45 °FLots of rain. Mostly cloudy.10 mph93%29.62 "HgN/A
8:25 PM48 °FPartly cloudy.30 mph76%29.62 "HgN/A
7:55 PM48 °FLight rain. Passing clouds.13 mph87%29.59 "HgN/A
7:25 PM48 °FBroken clouds.12 mph87%29.56 "HgN/A
6:55 PM50 °FLight rain. Broken clouds.15 mph82%29.56 "HgN/A
6:25 PM50 °FPartly sunny.10 mph88%29.53 "HgN/A
5:55 PM50 °FDrizzle. Broken clouds.14 mph88%29.50 "HgN/A
5:25 PM50 °FDrizzle. Broken clouds.8 mph94%29.50 "HgN/A
4:55 PM52 °FBroken clouds.16 mph82%29.50 "HgN/A
4:25 PM52 °FLight rain. Broken clouds.14 mph88%29.47 "HgN/A
3:55 PM54 °FDrizzle. Broken clouds.12 mph94%29.47 "HgN/A
3:25 PM54 °FRain showers. Broken clouds.14 mph100%29.45 "Hg4 mi
2:55 PM54 °FMostly cloudy.15 mph100%29.45 "HgN/A
2:25 PM54 °FSprinkles. Broken clouds.21 mph100%29.45 "Hg6 mi
Weather by CustomWeather, © 2014

See weather overviewHow to use our weather pages